Погода в Ясной Поляне

Россия / Пензенская область     53°02′31″N   46°39′13″E
темп.,
°C
ветер,
м/с
пор.,
м/с
влажн.,
%
обл.,
%
осадки,
мм/ч
давл.,
гПа
погр.,
м
27 октября, ср
ср2700:000зюз51467100 0.0 1026406
03:00+1зюз51565100 0.0 1025424
06:00+1зюз51563100 0.0 1024406
09:00+3зюз51555100 0.0 1024448
12:00+6зюз61342100 0.0 1023696
15:00+7юз61338100 0.0 1021821
18:00+5юз6154283 0.0 1020673
21:00+4юз616445 0.0 1019714
28 октября, чт
чт2800:00+3зюз6154929 0.0 1018623
03:00+3зюз51358100 0.0 1017608
06:00+2зюз41271100 0.0 1018430
09:00+4зюз41071100 0.0 1018390
12:00+7зюз51068100 0.0 1017824
15:00+7юз51070100 0.0 1016929
18:00+6юз5117692 0.0 1015720
21:00+5юз51088100 0.8 1015999
29 октября, пт
пт2900:00+5з4993100 0.3 1015620
03:00+6ссз4793100 0.4 1017915
06:00+5с4986100 0.1 1021615
09:00+5ссв4884100 0.1 1025605
12:00+7ссв346421 0.0 1027982
15:00+6ссв33585 0.0 1028947
18:00+2св117481 0.0 103110
21:00+2юз1178100 0.0 103211
30 октября, сб
сб3000:00+2юз2681100 0.0 1032115
03:00+1зюз388633 0.0 1032177
06:00+1зюз3108849 0.0 1033222
09:00+4зюз4117585 0.0 1033362
12:00+9з5105674 0.0 1032560
15:00+9з51057100 0.0 1031562
18:00+6з41172100 0.0 1032345
21:00+5з411808 0.0 1033280
31 октября, вс
вс3100:00+4з310855 0.0 1033227
03:00+3з39905 0.0 1033192
06:00+2з38920 0.0 1033146
09:00+5з37755 0.0 1033218
12:00+10з46555 0.0 1032430
15:00+10зюз37555 0.0 1031454
18:00+5зюз37740 0.0 1032132
21:00+4зюз26750 0.0 1032108